Weather History for Deer Park, WA

Change the Weather History Date:

Thursday, May 23, 2013

  Actual Average Record
Temperature  
Mean Temperature 46 °F 54 °F  
Max Temperature 59 °F 68 °F 89 °F (2001)
Min Temperature 34 °F 40 °F 31 °F (2007)
Degree Days  
Heating Degree Days 18 11  
Month to date heating degree days 322  
Since 1 July heating degree days 7133  
Cooling Degree Days 0 0  
Month to date cooling degree days 0  
Year to date cooling degree days 0  
Moisture  
Dew Point 35 °F    
Average Humidity 71    
Maximum Humidity 97    
Minimum Humidity 36    
Precipitation  
Precipitation 0.00 in 0.06 in 0.10 in (2012)
Month to date precipitation 1.29  
Year to date precipitation 9.19  
Sea Level Pressure  
Sea Level Pressure 30.02 in    
Wind  
Wind Speed 5 mph (North)    
Max Wind Speed 10 mph    
Max Gust Speed -    
Visibility 10 miles    
Events      
T = Trace of Precipitation, MM = Missing Value Source: NWS Daily Summary

Daily Weather History Graph

Daily Weather History Graph

Search for Another Location

Airport:

Trip Planner

Search our weather history database for the weather conditions in past years. The results will help you decide how hot, cold, wet, or windy it might be!

Date:

Astronomy

May. 23, 2013 Rise Set
Actual Time 5:01 AM PDT 8:32 PM PDT
Civil Twilight 4:23 AM PDT 9:10 PM PDT
Nautical Twilight 3:32 AM PDT 10:02 PM PDT
Astronomical Twilight 2:23 AM PDT 11:11 PM PDT
Moon 7:04 PM PDT (5/23) 3:57 AM PDT (5/23)
Length of Visible Light 16h 47m
Length of Day
15h 30m
Waxing Gibbous, 97% of the Moon is Illuminated
May 23
Waxing Gibbous
May 24
Full
May 31
Last Quarter
Jun 8
New
Jun 16
First Quarter

Hourly Weather History & Observations

Time (PDT) Temp. Windchill Dew Point Humidity Pressure Visibility Wind Dir Wind Speed Gust Speed Precip Events Conditions
12:53 AM 37.0 °F 31.6 °F 35.1 °F 93% 30.04 in 10.0 mi North 6.9 mph - N/A   Clear
1:53 AM 37.0 °F 31.6 °F 35.1 °F 93% 30.04 in 10.0 mi NNE 6.9 mph - N/A   Clear
2:53 AM 37.0 °F 29.8 °F 35.1 °F 93% 30.04 in 10.0 mi NNE 10.4 mph - N/A   Clear
3:53 AM 36.0 °F 29.6 °F 35.1 °F 97% 30.05 in 10.0 mi NNE 8.1 mph - N/A   Clear
4:53 AM 34.0 °F 29.8 °F 33.1 °F 96% 30.04 in 10.0 mi North 4.6 mph - N/A   Clear
5:53 AM 36.0 °F 33.3 °F 34.0 °F 93% 30.05 in 10.0 mi NNW 3.5 mph - N/A   Clear
6:53 AM 37.9 °F 35.5 °F 36.0 °F 93% 30.05 in 10.0 mi North 3.5 mph - N/A   Clear
7:32 AM 41.0 °F 39.0 °F 37.4 °F 87% 30.02 in 10.0 mi NNE 3.5 mph - N/A   Partly Cloudy
7:53 AM 41.0 °F 39.0 °F 37.9 °F 89% 30.05 in 10.0 mi NE 3.5 mph - N/A   Scattered Clouds
8:17 AM 42.8 °F 41.1 °F 37.4 °F 81% 30.02 in 10.0 mi ENE 3.5 mph - N/A   Mostly Cloudy
8:53 AM 45.0 °F 41.8 °F 39.0 °F 80% 30.05 in 10.0 mi NE 5.8 mph - N/A   Mostly Cloudy
9:13 AM 44.6 °F - 37.4 °F 76% 30.01 in 10.0 mi Calm Calm - N/A   Scattered Clouds
9:53 AM 46.0 °F - 37.0 °F 71% 30.05 in 10.0 mi Calm Calm - N/A   Clear
10:53 AM 51.1 °F - 35.1 °F 54% 30.04 in 10.0 mi South 3.5 mph - N/A   Clear
11:53 AM 53.1 °F - 34.0 °F 48% 30.02 in 10.0 mi NE 3.5 mph - N/A   Clear
12:53 PM 52.0 °F - 33.1 °F 49% 30.02 in 10.0 mi SW 3.5 mph - N/A   Overcast
1:53 PM 54.0 °F - 32.0 °F 43% 30.01 in 10.0 mi Calm Calm - N/A   Overcast
2:53 PM 55.0 °F - 33.1 °F 43% 30.01 in 10.0 mi Variable 3.5 mph - N/A   Scattered Clouds
3:53 PM 57.0 °F - 34.0 °F 42% 30.00 in 10.0 mi SW 4.6 mph - N/A   Scattered Clouds
4:53 PM 59.0 °F - 33.1 °F 38% 30.00 in 10.0 mi West 5.8 mph - N/A   Overcast
5:53 PM 59.0 °F - 32.0 °F 36% 29.99 in 10.0 mi North - - N/A   Mostly Cloudy
6:53 PM 57.0 °F - 30.9 °F 37% 29.98 in 10.0 mi Calm Calm - N/A   Clear
7:53 PM 55.0 °F - 36.0 °F 49% 29.96 in 10.0 mi Calm Calm - N/A   Clear
8:53 PM 43.0 °F - 37.9 °F 82% 29.98 in 9.0 mi Calm Calm - N/A   Clear
9:53 PM 39.0 °F 36.8 °F 35.1 °F 86% 30.00 in 10.0 mi ENE 3.5 mph - N/A   Clear
10:53 PM 37.0 °F - 34.0 °F 89% 30.00 in 10.0 mi Calm Calm - N/A   Clear
11:53 PM 37.9 °F 33.5 °F 34.0 °F 86% 29.98 in 10.0 mi NW 5.8 mph - N/A   Clear